EW9565 Weather Reports


Display with metric or nautical units.
time (UTC)temp
F
wind
direction
speed
MPH
gust
MPH
rain 1hr
in
rain 24hr
in
rain mn
in
humidity
%
barometer
mb
20260508033021 61 50 0.0 2.0 0.00 0.00 0.00 23 1021.4
20260508032535 62 95 0.0 1.0 0.00 0.00 0.00 22 1021.2
20260508032025 62 91 0.0 1.0 0.00 0.00 0.00 22 1021.2
20260508031528 62 91 0.0 1.0 0.00 0.00 0.00 21 1021.0
20260508031020 62 91 0.0 2.0 0.00 0.00 0.00 22 1020.9
20260508030523 63 23 1.0 2.0 0.00 0.00 0.00 21 1020.9
20260508030034 63 155 0.0 0.0 0.00 0.00 0.00 20 1020.7
20260508025528 63 155 0.0 0.0 0.00 0.00 0.00 20 1020.7
20260508025054 63 155 0.0 0.0 0.00 0.00 0.00 20 1020.7
20260508024536 64 155 0.0 0.0 0.00 0.00 0.00 20 1020.6
20260508024028 64 155 0.0 0.0 0.00 0.00 0.00 20 1020.6
20260508023541 65 155 0.0 0.0 0.00 0.00 0.00 19 1020.5
20260508023023 66 155 0.0 0.0 0.00 0.00 0.00 18 1020.5
20260508022536 67 155 0.0 0.0 0.00 0.00 0.00 17 1020.4
20260508022048 67 155 0.0 2.0 0.00 0.00 0.00 16 1020.3
20260508021528 68 186 1.0 2.0 0.00 0.00 0.00 15 1020.2
20260508021100 68 200 0.0 1.0 0.00 0.00 0.00 15 1020.2
20260508020529 69 203 0.0 3.0 0.00 0.00 0.00 14 1020.1
20260508020031 70 210 0.0 4.0 0.00 0.00 0.00 14 1020.1
20260508015545 70 179 2.0 4.0 0.00 0.00 0.00 14 1020.1
20260508015034 70 206 1.0 6.0 0.00 0.00 0.00 13 1020.0
20260508014546 71 207 3.0 6.0 0.00 0.00 0.00 13 1019.9
20260508014029 71 241 2.0 4.0 0.00 0.00 0.00 13 1019.8
20260508013520 71 215 2.0 4.0 0.00 0.00 0.00 13 1019.8
20260508013048 72 238 2.0 4.0 0.00 0.00 0.00 13 1019.8
20260508012539 72 202 1.0 4.0 0.00 0.00 0.00 13 1019.7
20260508012048 72 215 3.0 7.0 0.00 0.00 0.00 12 1019.7
20260508011531 73 196 4.0 7.0 0.00 0.00 0.00 12 1019.7
20260508011042 74 238 3.0 6.0 0.00 0.00 0.00 12 1019.7
20260508010532 74 212 3.0 6.0 0.00 0.00 0.00 12 1019.7
20260508010035 74 181 3.0 7.0 0.00 0.00 0.00 11 1019.6
20260508005529 74 196 5.0 7.0 0.00 0.00 0.00 11 1019.7
20260508005057 74 210 4.0 7.0 0.00 0.00 0.00 11 1019.6
20260508004548 74 180 4.0 7.0 0.00 0.00 0.00 11 1019.6
20260508004030 74 275 4.0 7.0 0.00 0.00 0.00 11 1019.5
20260508003522 74 215 3.0 8.0 0.00 0.00 0.00 11 1019.7
20260508003024 75 244 3.0 8.0 0.00 0.00 0.00 11 1019.7
20260508002531 75 231 2.0 5.0 0.00 0.00 0.00 11 1019.6
20260508002021 75 259 1.0 5.0 0.00 0.00 0.00 11 1019.6
20260508001523 75 240 2.0 8.0 0.00 0.00 0.00 11 1019.7
20260508001035 75 198 4.0 8.0 0.00 0.00 0.00 10 1019.7
20260508000527 75 201 3.0 5.0 0.00 0.00 0.00 10 1019.7
20260508000029 75 341 1.0 6.0 0.00 0.00 0.00 10 1019.7
20260507235543 75 199 4.0 8.0 0.00 0.00 0.00 10 1019.7
20260507235032 75 231 4.0 8.0 0.00 0.00 0.00 10 1019.8
20260507234543 75 307 3.0 5.0 0.00 0.00 0.00 11 1019.8
20260507234025 76 320 2.0 3.0 0.00 0.00 0.00 10 1019.9
20260507233535 76 351 1.0 8.0 0.00 0.00 0.00 10 1019.9
20260507233025 74 254 3.0 8.0 0.00 0.00 0.00 10 1020.1
20260507232538 74 200 4.0 7.0 0.00 0.00 0.00 10 1020.1
20260507232045 75 199 5.0 7.0 0.00 0.00 0.00 10 1020.1
20260507231522 75 190 2.0 7.0 0.00 0.00 0.00 10 1020.1
20260507231033 75 219 4.0 7.0 0.00 0.00 0.00 10 1020.2
20260507230525 74 134 0.0 3.0 0.00 0.00 0.00 11 1020.3
20260507230028 74 346 1.0 8.0 0.00 0.00 0.00 11 1020.4
20260507225542 73 247 3.0 8.0 0.00 0.00 0.00 11 1020.5
20260507225021 74 254 1.0 4.0 0.00 0.00 0.00 11 1020.5
20260507224542 74 65 1.0 7.0 0.00 0.00 0.00 11 1020.5
20260507224024 73 226 2.0 7.0 0.00 0.00 0.00 10 1020.6
20260507223536 73 238 3.0 7.0 0.00 0.00 0.00 10 1020.7
20260507223039 73 326 4.0 7.0 0.00 0.00 0.00 10 1020.7
20260507222533 73 60 2.0 9.0 0.00 0.00 0.00 11 1020.8
20260507222042 73 264 3.0 11.0 0.00 0.00 0.00 10 1020.9
20260507221522 73 277 3.0 11.0 0.00 0.00 0.00 12 1020.9
20260507221034 72 264 2.0 6.0 0.00 0.00 0.00 13 1020.9
20260507220526 72 320 2.0 6.0 0.00 0.00 0.00 12 1021.1
20260507220036 72 337 2.0 10.0 0.00 0.00 0.00 12 1021.2
20260507215537 72 216 5.0 10.0 0.00 0.00 0.00 12 1021.3
20260507215026 71 218 3.0 8.0 0.00 0.00 0.00 13 1021.3
20260507214528 71 200 2.0 10.0 0.00 0.00 0.00 13 1021.5
20260507214040 71 281 6.0 10.0 0.00 0.00 0.00 13 1021.6
20260507213532 71 46 2.0 10.0 0.00 0.00 0.00 13 1021.6
20260507213104 70 224 3.0 10.0 0.00 0.00 0.00 15 1021.8
20260507212527 71 293 3.0 7.0 0.00 0.00 0.00 15 1021.8
20260507212036 70 63 2.0 4.0 0.00 0.00 0.00 15 1021.9
20260507211547 70 278 0.0 5.0 0.00 0.00 0.00 15 1022.1
20260507211030 70 293 2.0 8.0 0.00 0.00 0.00 16 1022.2
20260507210542 70 262 4.0 9.0 0.00 0.00 0.00 16 1022.3
20260507210053 70 285 4.0 9.0 0.00 0.00 0.00 17 1022.3
20260507205536 70 288 2.0 5.0 0.00 0.00 0.00 16 1022.4
20260507205025 70 208 2.0 9.0 0.00 0.00 0.00 16 1022.6
20260507204536 69 244 1.0 9.0 0.00 0.00 0.00 17 1022.7
20260507204048 70 307 3.0 6.0 0.00 0.00 0.00 15 1022.8
20260507203530 69 193 1.0 6.0 0.00 0.00 0.00 17 1022.8
20260507203038 68 359 2.0 7.0 0.00 0.00 0.00 16 1022.9
20260507202541 69 191 3.0 7.0 0.00 0.00 0.00 17 1023.0
20260507202032 68 316 3.0 7.0 0.00 0.00 0.00 18 1023.1
20260507201543 67 126 2.0 8.0 0.00 0.00 0.00 17 1023.1
20260507201045 67 40 4.0 9.0 0.00 0.00 0.00 17 1023.2
20260507200536 67 18 5.0 9.0 0.00 0.00 0.00 19 1023.3
20260507200028 67 326 6.0 9.0 0.00 0.00 0.00 17 1023.3
20260507195532 67 309 3.0 7.0 0.00 0.00 0.00 19 1023.4
20260507195022 67 111 2.0 7.0 0.00 0.00 0.00 19 1023.4
20260507194525 67 251 2.0 5.0 0.00 0.00 0.00 21 1023.6
20260507194035 67 172 2.0 4.0 0.00 0.00 0.00 22 1023.6
20260507193527 66 225 1.0 6.0 0.00 0.00 0.00 23 1023.7
20260507193059 65 214 2.0 6.0 0.00 0.00 0.00 23 1023.8
20260507192522 66 304 0.0 4.0 0.00 0.00 0.00 23 1023.9
20260507192033 65 12 3.0 6.0 0.00 0.00 0.00 24 1024.0
20260507191546 64 226 3.0 6.0 0.00 0.00 0.00 25 1024.0
20260507191028 66 241 4.0 6.0 0.00 0.00 0.00 23 1024.3
20260507190539 66 259 3.0 6.0 0.00 0.00 0.00 23 1024.3
20260507190045 65 153 2.0 7.0 0.00 0.00 0.00 24 1024.4
20260507185525 64 202 3.0 9.0 0.00 0.00 0.00 24 1024.4
20260507185035 64 210 5.0 9.0 0.00 0.00 0.00 25 1024.6
20260507184545 64 283 2.0 6.0 0.00 0.00 0.00 25 1024.7
20260507184026 63 47 3.0 6.0 0.00 0.00 0.00 25 1024.8
20260507183538 63 16 2.0 7.0 0.00 0.00 0.00 26 1024.9
20260507183029 63 248 2.0 7.0 0.00 0.00 0.00 26 1025.0
20260507182542 63 224 1.0 5.0 0.00 0.00 0.00 26 1025.0
20260507182042 62 300 1.0 6.0 0.00 0.00 0.00 26 1025.2
20260507181602 62 86 3.0 7.0 0.00 0.00 0.00 26 1025.2
20260507181023 62 271 1.0 7.0 0.00 0.00 0.00 27 1025.3
20260507180535 62 297 2.0 6.0 0.00 0.00 0.00 27 1025.3
20260507175526 61 283 1.0 8.0 0.00 0.00 0.00 29 1025.5
20260507175034 61 270 4.0 8.0 0.00 0.00 0.00 28 1025.6
20260507174547 61 304 2.0 7.0 0.00 0.00 0.00 31 1025.6
20260507174038 61 54 3.0 5.0 0.00 0.00 0.00 30 1025.6
20260507173549 60 311 2.0 5.0 0.00 0.00 0.00 30 1025.6
20260507173029 60 11 2.0 5.0 0.00 0.00 0.00 33 1025.7
20260507172542 60 323 2.0 5.0 0.00 0.00 0.00 32 1025.8
20260507172050 60 321 2.0 4.0 0.00 0.00 0.00 29 1025.9
20260507171541 59 338 1.0 3.0 0.00 0.00 0.00 31 1025.9
20260507171023 59 266 2.0 3.0 0.00 0.00 0.00 31 1026.1
20260507170554 59 232 1.0 5.0 0.00 0.00 0.00 31 1026.2
20260507170045 58 214 2.0 5.0 0.00 0.00 0.00 31 1026.2
20260507165529 58 283 2.0 5.0 0.00 0.00 0.00 31 1026.3
20260507165033 57 337 2.0 5.0 0.00 0.00 0.00 32 1026.2
20260507164525 57 58 3.0 4.0 0.00 0.00 0.00 35 1026.3
20260507164027 57 350 1.0 9.0 0.00 0.00 0.00 36 1026.3
20260507163538 56 310 4.0 9.0 0.00 0.00 0.00 36 1026.4
20260507163028 56 52 1.0 6.0 0.00 0.00 0.00 37 1026.5
20260507162532 56 323 2.0 6.0 0.00 0.00 0.00 39 1026.5
20260507162040 55 272 2.0 6.0 0.00 0.00 0.00 40 1026.5
20260507161551 55 255 3.0 6.0 0.00 0.00 0.00 40 1026.5
20260507161030 54 348 2.0 5.0 0.00 0.00 0.00 42 1026.6
20260507160521 54 64 2.0 5.0 0.00 0.00 0.00 41 1026.6
20260507160023 54 281 1.0 6.0 0.00 0.00 0.00 43 1026.6
20260507155557 53 331 2.0 6.0 0.00 0.00 0.00 44 1026.6
20260507155026 53 265 2.0 6.0 0.00 0.00 0.00 47 1026.6
20260507154538 53 333 3.0 6.0 0.00 0.00 0.00 45 1026.7
20260507154021 53 293 2.0 4.0 0.00 0.00 0.00 44 1026.8
20260507153533 52 292 2.0 4.0 0.00 0.00 0.00 47 1026.8
20260507153101 52 264 1.0 4.0 0.00 0.00 0.00 48 1026.8
20260507152524 51 331 0.0 4.0 0.00 0.00 0.00 47 1027.0
20260507152034 51 339 3.0 4.0 0.00 0.00 0.00 49 1026.8
20260507151546 51 296 1.0 6.0 0.00 0.00 0.00 50 1027.0
20260507151028 50 44 2.0 6.0 0.00 0.00 0.00 49 1027.0
20260507150601 50 304 0.0 4.0 0.00 0.00 0.00 48 1027.0
20260507150051 49 329 2.0 4.0 0.00 0.00 0.00 51 1027.0
20260507145543 49 332 2.0 4.0 0.00 0.00 0.00 51 1027.0
20260507145024 48 344 1.0 4.0 0.00 0.00 0.00 54 1027.2
20260507144535 47 338 1.0 3.0 0.00 0.00 0.00 54 1027.2
20260507144047 47 329 2.0 3.0 0.00 0.00 0.00 53 1027.2
20260507143529 47 333 1.0 3.0 0.00 0.00 0.00 52 1027.1
20260507143101 47 324 2.0 4.0 0.00 0.00 0.00 52 1027.2
20260507142553 46 339 2.0 4.0 0.00 0.00 0.00 54 1027.3
20260507142042 46 37 1.0 4.0 0.00 0.00 0.00 54 1027.3
20260507141548 45 46 1.0 5.0 0.00 0.00 0.00 56 1027.2
20260507141030 45 337 1.0 5.0 0.00 0.00 0.00 58 1027.2
20260507140521 45 307 1.0 3.0 0.00 0.00 0.00 58 1027.2
20260507140034 44 323 0.0 2.0 0.00 0.00 0.00 60 1027.2
20260507135540 44 260 1.0 2.0 0.00 0.00 0.00 61 1027.1
20260507135027 44 280 0.0 2.0 0.00 0.00 0.00 63 1027.2
20260507134520 43 252 1.0 2.0 0.00 0.00 0.00 62 1027.1
20260507134022 43 260 0.0 2.0 0.00 0.00 0.00 60 1027.1
20260507133533 43 333 0.0 2.0 0.00 0.00 0.00 60 1027.0
20260507133045 43 281 0.0 3.0 0.00 0.00 0.00 59 1027.0
20260507132528 43 271 1.0 3.0 0.00 0.00 0.00 55 1027.0
20260507132038 43 108 0.0 1.0 0.00 0.00 0.00 53 1027.0
20260507131521 42 101 1.0 1.0 0.00 0.00 0.00 54 1027.0
20260507131032 41 34 0.0 3.0 0.00 0.00 0.00 58 1027.0
20260507130544 39 34 0.0 4.0 0.00 0.00 0.00 60 1027.0
20260507130026 39 328 2.0 4.0 0.00 0.00 0.00 62 1026.9
20260507125534 39 335 2.0 3.0 0.00 0.00 0.00 63 1026.9
20260507125023 38 295 0.0 0.0 0.00 0.00 0.00 69 1026.8
20260507124555 36 295 0.0 0.0 0.00 0.00 0.00 70 1026.8
20260507124035 36 295 0.0 1.0 0.00 0.00 0.00 69 1026.8
20260507123526 36 295 0.0 1.0 0.00 0.00 0.00 70 1026.8
20260507123038 36 169 0.0 0.0 0.00 0.00 0.00 72 1026.6
20260507122523 36 169 0.0 0.0 0.00 0.00 0.00 72 1026.5
20260507122033 36 169 0.0 0.0 0.00 0.00 0.00 71 1026.5
20260507121545 36 168 0.0 1.0 0.00 0.00 0.00 71 1026.5
20260507121026 36 169 0.0 1.0 0.00 0.00 0.00 71 1026.5
20260507120558 36 169 0.0 0.0 0.00 0.00 0.00 72 1026.6
20260507120050 36 169 0.0 0.0 0.00 0.00 0.00 73 1026.6
20260507115534 36 169 0.0 0.0 0.00 0.00 0.00 73 1026.5
20260507115023 36 169 0.0 0.0 0.00 0.00 0.00 73 1026.5
20260507114526 37 169 0.0 0.0 0.00 0.00 0.00 73 1026.5
20260507114057 37 169 0.0 0.0 0.00 0.00 0.00 72 1026.5
20260507113527 37 169 0.0 0.0 0.00 0.00 0.00 71 1026.5
20260507113024 37 169 0.0 0.0 0.00 0.00 0.00 72 1026.5
20260507112606 37 169 0.0 0.0 0.00 0.00 0.00 71 1026.6
20260507112108 37 169 0.0 0.0 0.00 0.00 0.00 70 1026.5
20260507111529 37 169 0.0 0.0 0.00 0.00 0.00 70 1026.5
20260507111059 37 169 0.0 1.0 0.00 0.00 0.00 70 1026.5
20260507110550 37 169 0.0 1.0 0.00 0.00 0.00 70 1026.6
20260507110041 37 169 0.0 0.0 0.00 0.00 0.00 68 1026.6
20260507105526 37 264 0.0 0.0 0.00 0.00 0.00 66 1026.6
20260507105036 37 264 0.0 0.0 0.00 0.00 0.00 65 1026.6
20260507104549 38 264 0.0 0.0 0.00 0.00 0.00 60 1026.6
20260507104030 39 264 0.0 1.0 0.00 0.00 0.00 60 1026.6
20260507103541 39 264 0.0 1.0 0.00 0.00 0.00 59 1026.6
20260507103024 40 264 0.0 1.0 0.00 0.00 0.00 58 1026.5
20260507102537 40 264 0.0 1.0 0.00 0.00 0.00 57 1026.5
20260507102022 41 264 0.0 0.0 0.00 0.00 0.00 56 1026.5
20260507101532 42 264 0.0 1.0 0.00 0.00 0.00 53 1026.5
20260507101034 42 264 1.0 3.0 0.00 0.00 0.00 52 1026.5
20260507100526 42 271 1.0 2.0 0.00 0.00 0.00 50 1026.5
20260507100038 42 217 1.0 3.0 0.00 0.00 0.00 49 1026.5
20260507095522 42 272 2.0 3.0 0.00 0.00 0.00 48 1026.4
20260507095029 41 268 1.0 2.0 0.00 0.00 0.00 49 1026.4
20260507094542 41 220 1.0 2.0 0.00 0.00 0.00 50 1026.4
20260507094025 41 128 1.0 2.0 0.00 0.00 0.00 50 1026.3
20260507093536 41 141 0.0 1.0 0.00 0.00 0.00 49 1026.3
20260507093037 41 141 0.0 2.0 0.00 0.00 0.00 48 1026.4
20260507092530 41 150 1.0 2.0 0.00 0.00 0.00 50 1026.4
20260507092039 42 136 0.0 1.0 0.00 0.00 0.00 50 1026.4
20260507091521 42 136 0.0 1.0 0.00 0.00 0.00 49 1026.4
20260507091033 42 136 0.0 1.0 0.00 0.00 0.00 47 1026.4
20260507090536 42 124 1.0 1.0 0.00 0.00 0.00 47 1026.4
20260507090026 43 323 0.0 1.0 0.00 0.00 0.00 44 1026.2
20260507085536 43 128 0.0 1.0 0.00 0.00 0.00 43 1026.2
20260507085046 44 128 0.0 1.0 0.00 0.00 0.00 42 1026.2
20260507084527 44 128 0.0 1.0 0.00 0.00 0.00 42 1026.2
20260507084039 44 128 0.0 1.0 0.00 0.00 0.00 40 1026.1
20260507083528 45 128 0.0 1.0 0.00 0.00 0.00 39 1026.1
20260507083031 45 128 0.0 3.0 0.00 0.00 0.00 40 1026.1
20260507082524 45 40 1.0 3.0 0.00 0.00 0.00 40 1026.1
20260507082026 45 58 1.0 2.0 0.00 0.00 0.00 42 1026.0
20260507081538 45 66 0.0 1.0 0.00 0.00 0.00 40 1026.1
20260507081049 45 25 0.0 1.0 0.00 0.00 0.00 40 1026.0
20260507080540 45 25 0.0 1.0 0.00 0.00 0.00 40 1025.9
20260507080022 45 25 0.0 1.0 0.00 0.00 0.00 38 1026.0
20260507075536 46 25 0.0 1.0 0.00 0.00 0.00 40 1025.9
20260507075046 46 25 0.0 1.0 0.00 0.00 0.00 37 1025.9
20260507074529 46 25 0.0 1.0 0.00 0.00 0.00 37 1025.9
20260507074101 47 96 0.0 1.0 0.00 0.00 0.00 37 1025.9
20260507073532 47 96 0.0 1.0 0.00 0.00 0.00 37 1026.0
20260507073029 47 97 0.0 1.0 0.00 0.00 0.00 37 1025.9
20260507072523 47 101 0.0 1.0 0.00 0.00 0.00 37 1025.9
20260507072024 47 101 0.0 1.0 0.00 0.00 0.00 36 1025.8
20260507071536 48 100 0.0 1.0 0.00 0.00 0.00 36 1025.8
20260507071048 48 108 0.0 2.0 0.00 0.00 0.00 36 1025.7
20260507070531 48 108 1.0 2.0 0.00 0.00 0.00 35 1025.7
20260507070022 49 38 0.0 4.0 0.00 0.00 0.00 35 1025.6
20260507065526 49 29 0.0 5.0 0.00 0.00 0.00 35 1025.5
20260507065037 49 21 2.0 5.0 0.00 0.00 0.00 35 1025.4
20260507064528 49 14 2.0 4.0 0.00 0.00 0.00 37 1025.4
20260507064031 49 340 2.0 3.0 0.00 0.00 0.00 38 1025.4
20260507063523 48 326 2.0 3.0 0.00 0.00 0.00 40 1025.4
20260507063025 48 338 2.0 3.0 0.00 0.00 0.00 41 1025.4
20260507062539 47 46 1.0 1.0 0.00 0.00 0.00 44 1025.4
20260507062026 47 50 0.0 1.0 0.00 0.00 0.00 46 1025.5
20260507061536 48 50 0.0 0.0 0.00 0.00 0.00 45 1025.5
20260507061046 49 50 0.0 0.0 0.00 0.00 0.00 43 1025.5
20260507060528 49 50 0.0 1.0 0.00 0.00 0.00 42 1025.4
20260507060046 50 50 0.0 2.0 0.00 0.00 0.00 42 1025.4
20260507055522 50 50 1.0 2.0 0.00 0.00 0.00 41 1025.3
20260507055050 50 32 1.0 1.0 0.00 0.00 0.00 43 1025.3
20260507054541 50 30 0.0 1.0 0.00 0.00 0.00 43 1025.3
20260507054023 51 30 0.0 1.0 0.00 0.00 0.00 43 1025.3
20260507053555 51 30 0.0 1.0 0.00 0.00 0.00 43 1025.2
20260507053024 51 30 0.0 1.0 0.00 0.00 0.00 43 1025.2
20260507052536 52 30 0.0 2.0 0.00 0.00 0.00 44 1025.2
20260507052037 52 30 1.0 2.0 0.00 0.00 0.00 44 1025.1
20260507051529 52 36 1.0 2.0 0.00 0.00 0.00 45 1025.2
20260507051042 53 49 0.0 2.0 0.00 0.00 0.00 45 1025.1
20260507050544 53 41 1.0 5.0 0.00 0.00 0.00 45 1025.1
20260507050035 53 50 2.0 5.0 0.00 0.00 0.00 44 1024.9
20260507045526 54 25 2.0 4.0 0.00 0.00 0.00 44 1024.9
20260507045023 54 34 2.0 5.0 0.00 0.00 0.00 44 1024.9
20260507044554 54 33 2.0 5.0 0.00 0.00 0.00 44 1024.8
20260507044024 54 351 3.0 5.0 0.00 0.00 0.00 44 1024.7
20260507043525 54 4 3.0 8.0 0.00 0.00 0.00 44 1024.6
20260507043036 54 18 4.0 8.0 0.00 0.00 0.00 46 1024.5
20260507042529 53 13 2.0 3.0 0.00 0.00 0.00 47 1024.5
20260507042030 54 46 1.0 2.0 0.00 0.00 0.00 47 1024.4
20260507041521 54 48 0.0 2.0 0.00 0.00 0.00 47 1024.3
20260507041034 54 48 0.0 2.0 0.00 0.00 0.00 46 1024.2
20260507040605 54 41 0.0 1.0 0.00 0.00 0.00 46 1024.1
20260507040026 55 41 1.0 1.0 0.00 0.00 0.00 46 1024.0
20260507035541 55 41 0.0 2.0 0.00 0.00 0.00 45 1024.0
20260507035050 55 41 1.0 2.0 0.00 0.00 0.00 45 1024.0
20260507034533 55 28 0.0 1.0 0.00 0.00 0.00 45 1023.9
20260507034024 55 28 1.0 1.0 0.00 0.00 0.00 44 1023.8
20260507033527 55 337 0.0 1.0 0.00 0.00 0.00 44 1023.7